[[{"header":{"parameterUnit":"m.s-1","parameterCategory":2,"la1":30.2991,"la2":30.254,"lo1":-89.0895,"lo2":-89.0444,"dy":0.0017,"dx":0.0017,"nx":28,"ny":28,"refTime":"2023-11-14T09:00:00:Z","depth":"0","parameterNumber":2,"parameterNumberName":"U-component_of_CURRENTS"},"data":[0,0,0,0,0,0,0,0,0,0,0,0,0,0,0,0,0,0,0,0,0,0,0,0,0,0,0,0,0,0,0,0,0,0,0,0,0,0,0,0,0,0,0,0,0,0,0,0,0,0,0,0,0,0,0,0,0,0,0.1919,0.1919,0,0.1891,0.189,0.189,0.1861,0.1861,0.1861,0.1861,0.1822,0.1821,0.182,0,0,0,0,0,0,0,0,0,0,0,0,0,0.1945,0.1944,0.1919,0.1919,0.1919,0.1891,0.189,0.189,0.1861,0.1861,0.1861,0.1861,0.1822,0.1821,0.182,0,0,0,0,0,0,0,0,0,0,0,0,0,0.1924,0.1944,0.1919,0.1903,0.1902,0.1891,0.189,0.189,0.1861,0.1861,0.1861,0.1861,0.1822,0.1821,0.182,0.1816,0,0,0.1816,0.1815,0,0,0,0,0,0,0,0,0.1926,0.1923,0.1906,0.1904,0.1903,0.1882,0.1885,0.1865,0.1861,0.1874,0.1861,0.186,0.1843,0.184,0.1831,0.1814,0.1812,0.1816,0.1815,0.1814,0.1814,0,0,0,0,0,0,0,0.1927,0.1924,0.1905,0.1906,0.1904,0.1897,0.1893,0.1881,0.1858,0.1873,0.1871,0.1872,0.1841,0.1833,0.183,0.1812,0.1816,0.1814,0.1814,0.1813,0.1823,0.1824,0,0,0,0,0,0,0.1936,0.1925,0.1906,0.1905,0.1917,0.1896,0.1892,0.1886,0.1858,0.1854,0.1873,0.1871,0.1835,0.1832,0.1829,0.1845,0.1814,0.1813,0.1812,0.1822,0.1824,0.1825,0,0,0,0,0,0,0.1937,0.1934,0.1907,0.1917,0.1913,0.1897,0.189,0.1886,0.1884,0.1858,0.1854,0.1875,0.1835,0.1831,0.1828,0.1842,0.1812,0.1811,0.1821,0.1823,0.1824,0.1862,0,0,0,0,0,0,0.1937,0.1934,0.1935,0.1917,0.1913,0.191,0.189,0.1886,0.1886,0.1883,0.1859,0.1855,0.1834,0.183,0.1827,0.184,0.181,0.182,0.1822,0.1824,0.186,0.1865,0.187,0,0,0,0,0,0.1938,0.1941,0.1935,0.1933,0.1914,0.1911,0.1908,0.1893,0.1886,0.1889,0.1874,0.1856,0.1841,0.183,0.1825,0.1838,0.1819,0.1821,0.1824,0.1857,0.1864,0.187,0,0,0,0,0,0,0.1952,0.1938,0.1931,0.1929,0.1925,0.1907,0.1909,0.1901,0.1891,0.1889,0.1864,0.1859,0.1865,0.185,0.1838,0.185,0.1829,0.1831,0.1857,0.1862,0.1867,0.188,0.1809,0,0,0,0,0,0.1957,0.1954,0.1943,0.1943,0.1942,0.1928,0.1926,0.1917,0.1906,0.1901,0.1885,0.1874,0.1871,0.1865,0.1858,0.1859,0.1863,0.1868,0.1873,0.1877,0.1886,0.1909,0.1917,0.1833,0.1833,0.1833,0,0,0.1962,0.1955,0.1953,0.1946,0.1939,0.1942,0.1925,0.1926,0.1929,0.1899,0.1899,0.1891,0.1877,0.1881,0.1882,0.1868,0.1904,0.188,0.1884,0.1891,0.1913,0.1921,0.1928,0.1834,0.1834,0.1834,0,0,0.1972,0.1965,0.1967,0.1967,0.1965,0.1958,0.1963,0.1951,0.1947,0.1947,0.1933,0.1938,0.192,0.1919,0.1915,0.1946,0.1933,0.1942,0.1971,0.1993,0.2001,0.2007,0.2026,0.2033,0.1941,0.1941,0.1941,0,0.1981,0.1977,0.197,0.1975,0.1977,0.1968,0.1975,0.1973,0.1963,0.1968,0.1953,0.1955,0.1942,0.1958,0.1967,0.1957,0.1965,0.1946,0.2,0.2006,0.2012,0.203,0.2038,0.1943,0.1942,0.1942,0.1942,0,0.1991,0.1992,0.1996,0.1997,0.2001,0.2006,0.2005,0.2011,0.2005,0.2004,0.2021,0.2007,0.201,0.2009,0.1993,0.203,0.2021,0.2006,0.1983,0.2023,0.2039,0.2046,0.1946,0.1945,0.1944,0.1944,0,0,0.1998,0.2002,0.2003,0.2005,0.2012,0.2013,0.2031,0.2042,0.2056,0.2055,0.2074,0.2076,0.2076,0.2073,0.2061,0.2077,0.2122,0.2059,0.2059,0.2076,0.2173,0.2158,0.2165,0.2114,0.2115,0.2117,0.2168,0,0.2008,0.2018,0.2019,0.203,0.2034,0.2039,0.2054,0.2068,0.2077,0.2095,0.2102,0.2114,0.2098,0.21,0.2119,0.2122,0.2144,0.211,0.2134,0.2135,0.2116,0.2174,0.2085,0.2123,0.2176,0.2177,0.2178,0,0.2015,0.202,0.203,0.204,0.2043,0.2051,0.2076,0.209,0.2123,0.2135,0.2161,0.2161,0.2193,0.2166,0.221,0.2188,0.219,0.2189,0.2191,0.217,0.2135,0.2092,0.2134,0.2043,0.2189,0.2188,0.2187,0,0.2013,0.2026,0.2031,0.2035,0.2049,0.2058,0.2069,0.2101,0.2119,0.2165,0.2183,0.222,0.2235,0.2254,0.2259,0.2237,0.2302,0.2269,0.226,0.2259,0.2185,0.2175,0.214,0.2305,0.2305,0.2305,0.2305,0,0.2014,0.2018,0.2029,0.203,0.204,0.2055,0.2077,0.2101,0.2142,0.2174,0.2201,0.2235,0.2258,0.2289,0.2289,0.231,0.2332,0.2286,0.228,0.2196,0.2187,0.2105,0.2032,0.2307,0.2307,0.2306,0.2306,0,0.2001,0.2011,0.2015,0.2031,0.2035,0.2041,0.2071,0.2093,0.2136,0.2181,0.2196,0.2257,0.2311,0.2329,0.2366,0.2347,0.2283,0.2361,0.2264,0.2246,0.2141,0.2072,0.2006,0.1932,0.2362,0.2362,0.2362,0,0.1987,0.199,0.2006,0.2009,0.2011,0.2026,0.2041,0.2085,0.2114,0.2196,0.2217,0.2284,0.2329,0.2386,0.2376,0.2388,0.2286,0.2298,0.2242,0.2142,0.2062,0.1995,0.1931,0.2159,0.2157,0.2156,0.2155,0,0.1959,0.197,0.1975,0.1985,0.1994,0.2,0.2025,0.2045,0.2109,0.214,0.2203,0.2247,0.2329,0.231,0.2332,0.2325,0.2159,0.2272,0.219,0.1926,0.1828,0.175,0.2117,0.2143,0.2144,0.2145,0.2145,0.2146,0.1937,0.1932,0.1946,0.1947,0.1959,0.1955,0.1936,0.1974,0.1994,0.2015,0.2127,0.2143,0.2199,0.2226,0.2204,0.2099,0.209,0.2008,0.1944,0.1896,0.1786,0.2136,0.2142,0.2143,0.2144,0.2144,0.2145,0,0.1908,0.1905,0.1905,0.1891,0.1874,0.1899,0.1908,0.1879,0.1866,0.1914,0.194,0.1944,0.1946,0.1967,0.1891,0.1767,0.1705,0.1697,0.156,0.1521,0.1853,0.1806,0.1712,0.1712,0.1712,0.1712,0.1712,0.1713,0.1893,0.1877,0.1869,0.1807,0.1793,0.1729,0.1714,0.1684,0.1693,0.1634,0.16,0.1631,0.1657,0.1601,0.1482,0.1458,0.1299,0.1263,0.1241,0.1443,0.1466,0.1489,0.143,0.1259,0.1259,0.0881,0.0877,0.0874]},{"header":{"parameterUnit":"m.s-1","parameterCategory":2,"la1":30.2991,"la2":30.254,"lo1":-89.0895,"lo2":-89.0444,"dy":0.0017,"dx":0.0017,"nx":28,"ny":28,"refTime":"2023-11-14T09:00:00:Z","depth":"0","parameterNumber":3,"parameterNumberName":"V-component_of_CURRENTS"},"data":[0,0,0,0,0,0,0,0,0,0,0,0,0,0,0,0,0,0,0,0,0,0,0,0,0,0,0,0,0,0,0,0,0,0,0,0,0,0,0,0,0,0,0,0,0,0,0,0,0,0,0,0,0,0,0,0,0,0,-0.0119,-0.0119,0,-0.0145,-0.0145,-0.0146,-0.0157,-0.0157,-0.0157,-0.0157,-0.0193,-0.0194,-0.0195,0,0,0,0,0,0,0,0,0,0,0,0,0,-0.0103,-0.0103,-0.0119,-0.0119,-0.0119,-0.0145,-0.0145,-0.0146,-0.0157,-0.0157,-0.0157,-0.0157,-0.0193,-0.0194,-0.0195,0,0,0,0,0,0,0,0,0,0,0,0,0,-0.0118,-0.0103,-0.0119,-0.0128,-0.0129,-0.0145,-0.0145,-0.0146,-0.0157,-0.0157,-0.0157,-0.0157,-0.0193,-0.0194,-0.0196,-0.0207,0,0,-0.02,-0.0201,0,0,0,0,0,0,0,0,-0.0117,-0.0118,-0.0126,-0.0127,-0.0129,-0.0148,-0.0153,-0.0167,-0.0157,-0.0147,-0.0157,-0.0157,-0.0179,-0.0182,-0.0187,-0.0208,-0.021,-0.02,-0.0201,-0.0202,-0.0202,0,0,0,0,0,0,0,-0.0116,-0.0117,-0.0129,-0.0127,-0.0128,-0.0139,-0.0141,-0.0156,-0.0163,-0.0148,-0.0149,-0.0151,-0.018,-0.0185,-0.0188,-0.021,-0.02,-0.0202,-0.0203,-0.0203,-0.0225,-0.0225,0,0,0,0,0,0,-0.0111,-0.0116,-0.0129,-0.013,-0.0122,-0.0139,-0.0142,-0.0142,-0.0163,-0.0166,-0.0151,-0.0152,-0.0183,-0.0186,-0.0189,-0.0184,-0.0202,-0.0203,-0.0204,-0.0225,-0.0225,-0.0225,0,0,0,0,0,0,-0.011,-0.0111,-0.0128,-0.0124,-0.0126,-0.014,-0.014,-0.0142,-0.0145,-0.0166,-0.0169,-0.0151,-0.0183,-0.0187,-0.0193,-0.0186,-0.0204,-0.0205,-0.0226,-0.0225,-0.0225,-0.0185,0,0,0,0,0,0,-0.011,-0.0111,-0.011,-0.0123,-0.0126,-0.013,-0.014,-0.0143,-0.0147,-0.0148,-0.0167,-0.017,-0.0183,-0.0191,-0.0194,-0.0188,-0.0207,-0.0226,-0.0225,-0.0225,-0.0187,-0.0184,-0.0181,0,0,0,0,0,-0.0109,-0.0105,-0.0109,-0.0111,-0.0124,-0.013,-0.0132,-0.0142,-0.0147,-0.0145,-0.0155,-0.017,-0.0189,-0.0191,-0.0196,-0.019,-0.0226,-0.0226,-0.0225,-0.0189,-0.0184,-0.0181,0,0,0,0,0,0,-0.0099,-0.0106,-0.0111,-0.011,-0.0117,-0.0132,-0.0132,-0.014,-0.0147,-0.0148,-0.0166,-0.017,-0.0174,-0.0187,-0.0189,-0.0195,-0.021,-0.021,-0.0181,-0.0177,-0.0174,-0.0161,-0.0208,0,0,0,0,0,-0.0096,-0.0093,-0.0104,-0.0103,-0.0106,-0.0119,-0.0123,-0.0129,-0.0138,-0.0141,-0.0154,-0.0167,-0.0175,-0.0179,-0.0192,-0.0195,-0.0211,-0.0195,-0.0191,-0.0188,-0.0181,-0.0195,-0.0192,-0.0222,-0.0222,-0.0222,0,0,-0.0093,-0.0096,-0.0096,-0.0101,-0.0108,-0.0102,-0.0121,-0.0124,-0.0118,-0.0144,-0.0142,-0.0158,-0.0174,-0.0176,-0.0179,-0.0185,-0.019,-0.0187,-0.0185,-0.0179,-0.0194,-0.0191,-0.0189,-0.0222,-0.0222,-0.0222,0,0,-0.0082,-0.0087,-0.008,-0.0082,-0.0088,-0.0092,-0.009,-0.0102,-0.0106,-0.0109,-0.0123,-0.0131,-0.0149,-0.0154,-0.016,-0.0147,-0.0174,-0.0154,-0.0125,-0.0139,-0.0137,-0.0135,-0.0158,-0.0159,-0.0151,-0.0151,-0.0151,0,-0.0078,-0.0069,-0.008,-0.0071,-0.0066,-0.0083,-0.007,-0.0077,-0.0088,-0.0086,-0.0102,-0.0119,-0.0136,-0.013,-0.0126,-0.0139,-0.0155,-0.0138,-0.0135,-0.0133,-0.0132,-0.0156,-0.0157,-0.0149,-0.0149,-0.0149,-0.0149,0,-0.006,-0.0052,-0.0047,-0.0037,-0.0034,-0.0027,-0.0033,-0.0034,-0.0043,-0.0046,-0.005,-0.0076,-0.0083,-0.0093,-0.0105,-0.0101,-0.0119,-0.0131,-0.0143,-0.0126,-0.0153,-0.0155,-0.0146,-0.0147,-0.0147,-0.0148,0,0,-0.0048,-0.0036,-0.0032,-0.0018,-0.0013,-0.0006,0.0003,0.0012,0.0028,0.0004,0.0018,-0.0006,-0.0021,-0.0029,-0.0051,-0.0064,-0.0075,-0.009,-0.0091,-0.011,-0.0114,-0.0119,-0.0122,-0.0087,-0.0087,-0.0086,-0.0139,0,-0.0027,0.0,0.0001,0.0033,0.0049,0.0043,0.0058,0.0063,0.0062,0.007,0.0039,0.0042,0.0004,0.0,-0.0018,-0.0054,-0.0077,-0.006,-0.0129,-0.0131,-0.0136,-0.0123,-0.011,-0.0154,-0.0141,-0.0141,-0.0141,0,-0.0004,0.0013,0.0046,0.0077,0.0083,0.01,0.013,0.0141,0.0146,0.0143,0.0134,0.011,0.0091,0.0051,-0.0007,0.0005,-0.0051,-0.0089,-0.0092,-0.0109,-0.0139,-0.0168,-0.0158,-0.0265,-0.0144,-0.0144,-0.0144,0,0.0021,0.005,0.0081,0.0091,0.0117,0.0132,0.0149,0.0165,0.019,0.0192,0.0205,0.0172,0.016,0.0092,0.0015,0.0002,-0.0054,-0.0084,-0.0147,-0.0149,-0.0156,-0.0158,-0.0252,-0.0135,-0.0135,-0.0134,-0.0134,0,0.0049,0.0076,0.0096,0.0115,0.0157,0.0164,0.0214,0.0222,0.0248,0.0294,0.0246,0.0266,0.0171,0.0127,0.0039,-0.0048,-0.0038,-0.0137,-0.0157,-0.0143,-0.0143,-0.0251,-0.0313,-0.0136,-0.0136,-0.0136,-0.0135,0,0.0076,0.0086,0.0126,0.0158,0.0171,0.0203,0.0257,0.0297,0.0309,0.0363,0.0364,0.0341,0.0288,0.0185,0.0083,-0.0006,-0.0158,-0.0137,-0.0116,-0.0133,-0.0296,-0.0355,-0.0437,-0.0517,-0.022,-0.022,-0.0221,0,0.0097,0.0118,0.016,0.0188,0.0205,0.0253,0.0293,0.0324,0.0375,0.0418,0.045,0.0412,0.0404,0.0249,0.0097,-0.0057,-0.0168,-0.0167,-0.0191,-0.0298,-0.0379,-0.0396,-0.046,-0.0195,-0.0195,-0.0195,-0.0195,0,0.014,0.0149,0.0182,0.023,0.0275,0.0333,0.0393,0.044,0.049,0.0533,0.0586,0.0581,0.0445,0.0316,0.0106,-0.0013,-0.0239,-0.0173,-0.0287,-0.0365,-0.0387,-0.0475,-0.0178,-0.0195,-0.0195,-0.0195,-0.0195,-0.0195,0.0177,0.0201,0.0234,0.0285,0.0336,0.0406,0.0449,0.0528,0.0609,0.0674,0.0681,0.068,0.0493,0.0221,0.0056,-0.0246,-0.0253,-0.0348,-0.0411,-0.0419,-0.049,-0.0195,-0.023,-0.0231,-0.0231,-0.0231,-0.0231,0,0.0209,0.0235,0.0288,0.0341,0.0394,0.0413,0.0511,0.0551,0.0643,0.0718,0.0757,0.065,0.0435,0.0167,-0.0202,-0.043,-0.0524,-0.0568,-0.0603,-0.0663,-0.0402,-0.0395,-0.0462,-0.0462,-0.0462,-0.0462,-0.0462,-0.0462,0.0226,0.0269,0.0292,0.0375,0.0412,0.0471,0.052,0.0587,0.0645,0.0683,0.0673,0.0637,0.0384,-0.0091,-0.0532,-0.0656,-0.0843,-0.0841,-0.0966,-0.0797,-0.0781,-0.0766,-0.0774,-0.092,-0.0921,-0.119,-0.1193,-0.1195]}],[{"header":{"parameterUnit":"m.s-1","parameterCategory":2,"la1":30.2991,"la2":30.254,"lo1":-89.0895,"lo2":-89.0444,"dy":0.0017,"dx":0.0017,"nx":28,"ny":28,"refTime":"2023-11-14T09:00:00:Z","depth":"2","parameterNumber":2,"parameterNumberName":"U-component_of_CURRENTS"},"data":[0,0,0,0,0,0,0,0,0,0,0,0,0,0,0,0,0,0,0,0,0,0,0,0,0,0,0,0,0,0,0,0,0,0,0,0,0,0,0,0,0,0,0,0,0,0,0,0,0,0,0,0,0,0,0,0,0,0,0.1949,0.1949,0,0.1923,0.1922,0.1922,0.1894,0.1894,0.1894,0.1894,0.1857,0.1856,0.1856,0,0,0,0,0,0,0,0,0,0,0,0,0,0.1972,0.1972,0.1949,0.1949,0.1949,0.1923,0.1922,0.1921,0.1894,0.1894,0.1894,0.1894,0.1858,0.1857,0.1856,0,0,0,0,0,0,0,0,0,0,0,0,0,0.1953,0.1971,0.1949,0.1934,0.1932,0.1923,0.1922,0.1921,0.1894,0.1894,0.1894,0.1893,0.1858,0.1857,0.1855,0.1852,0,0,0.1852,0.1851,0,0,0,0,0,0,0,0,0.1954,0.1952,0.1936,0.1935,0.1933,0.1914,0.1917,0.1899,0.1894,0.1906,0.1894,0.1893,0.1877,0.1874,0.1866,0.1851,0.1849,0.1852,0.1851,0.185,0.185,0,0,0,0,0,0,0,0.1956,0.1953,0.1936,0.1936,0.1934,0.1927,0.1924,0.1913,0.1891,0.1905,0.1903,0.1905,0.1876,0.1868,0.1865,0.1849,0.1852,0.185,0.185,0.1849,0.1862,0.1863,0,0,0,0,0,0,0.1964,0.1954,0.1937,0.1935,0.1946,0.1927,0.1924,0.1918,0.1891,0.1888,0.1905,0.1904,0.187,0.1867,0.1864,0.1881,0.185,0.1849,0.1848,0.1861,0.1862,0.1863,0,0,0,0,0,0,0.1965,0.1963,0.1938,0.1947,0.1943,0.1927,0.1921,0.1918,0.1916,0.1892,0.1887,0.1908,0.1869,0.1866,0.1864,0.1878,0.1849,0.1847,0.1859,0.1861,0.1863,0.19,0,0,0,0,0,0,0.1965,0.1963,0.1964,0.1947,0.1943,0.1941,0.1922,0.1917,0.1918,0.1916,0.1893,0.1889,0.1869,0.1866,0.1863,0.1876,0.1846,0.1858,0.186,0.1862,0.1898,0.1903,0.1907,0,0,0,0,0,0.1966,0.197,0.1964,0.1962,0.1944,0.1942,0.1939,0.1925,0.1918,0.1922,0.1908,0.189,0.1877,0.1866,0.1862,0.1875,0.1857,0.186,0.1862,0.1895,0.1902,0.1907,0,0,0,0,0,0,0.198,0.1967,0.196,0.1959,0.1956,0.1938,0.194,0.1933,0.1924,0.1922,0.1898,0.1893,0.19,0.1885,0.1874,0.1887,0.1866,0.1868,0.1893,0.1899,0.1904,0.1916,0.1845,0,0,0,0,0,0.1985,0.1983,0.1972,0.1973,0.1972,0.1959,0.1957,0.1949,0.1939,0.1934,0.1919,0.1909,0.1906,0.1901,0.1895,0.1897,0.1901,0.1906,0.1911,0.1915,0.1924,0.1947,0.1955,0.1871,0.1871,0.1871,0,0,0.199,0.1984,0.1982,0.1976,0.1969,0.1973,0.1956,0.1958,0.1961,0.1932,0.1933,0.1925,0.1913,0.1917,0.1919,0.1905,0.1942,0.1918,0.1921,0.1928,0.195,0.1958,0.1965,0.1873,0.1873,0.1872,0,0,0.2001,0.1995,0.1997,0.1997,0.1996,0.1988,0.1994,0.1983,0.1979,0.198,0.1967,0.1972,0.1956,0.1955,0.1952,0.1983,0.197,0.1979,0.2008,0.203,0.2037,0.2043,0.2061,0.2069,0.1978,0.1978,0.1978,0,0.201,0.2007,0.2,0.2006,0.2007,0.1999,0.2006,0.2004,0.1995,0.2001,0.1986,0.199,0.1977,0.1994,0.2003,0.1994,0.2002,0.1983,0.2036,0.2042,0.2048,0.2065,0.2073,0.198,0.198,0.198,0.1979,0,0.2021,0.2022,0.2027,0.2028,0.2032,0.2037,0.2036,0.2042,0.2038,0.2037,0.2054,0.2042,0.2045,0.2044,0.2029,0.2066,0.2057,0.2042,0.202,0.2059,0.2074,0.2081,0.1983,0.1982,0.1982,0.1981,0,0,0.2028,0.2032,0.2034,0.2036,0.2043,0.2044,0.2062,0.2074,0.2088,0.2087,0.2107,0.211,0.211,0.2108,0.2097,0.2112,0.2156,0.2095,0.2095,0.211,0.2206,0.2189,0.2195,0.2149,0.215,0.2151,0.2201,0,0.2038,0.2048,0.205,0.2062,0.2066,0.2071,0.2086,0.21,0.2109,0.2128,0.2135,0.2147,0.2132,0.2134,0.2153,0.2157,0.2177,0.2144,0.2168,0.2169,0.2147,0.2204,0.1963,0.1987,0.2208,0.2209,0.221,0,0.2045,0.2051,0.2062,0.2072,0.2075,0.2083,0.2108,0.2122,0.2155,0.2167,0.2193,0.2194,0.2226,0.2199,0.2242,0.2221,0.2222,0.2222,0.2224,0.2201,0.2166,0.1984,0.1992,0.2222,0.2221,0.222,0.222,0,0.2043,0.2057,0.2063,0.2067,0.2082,0.209,0.2102,0.2134,0.2152,0.2197,0.2214,0.2252,0.2267,0.2285,0.229,0.2269,0.2333,0.23,0.2289,0.2287,0.2085,0.2063,0.2336,0.2336,0.2336,0.2335,0.2335,0,0.2045,0.2049,0.2061,0.2062,0.2073,0.2088,0.211,0.2134,0.2174,0.2206,0.2233,0.2266,0.2289,0.2319,0.2319,0.2339,0.2361,0.2314,0.2308,0.2092,0.2072,0.2273,0.2265,0.2337,0.2337,0.2337,0.2336,0,0.2031,0.2042,0.2047,0.2063,0.2068,0.2075,0.2104,0.2126,0.2169,0.2213,0.2228,0.2288,0.2339,0.2357,0.2394,0.2374,0.2391,0.2387,0.2138,0.2103,0.2321,0.2315,0.2384,0.2384,0.2384,0.2384,0.2384,0,0.2016,0.2019,0.2038,0.2041,0.2044,0.206,0.2075,0.2119,0.2147,0.2227,0.2248,0.2313,0.2349,0.2403,0.2358,0.2358,0.2416,0.2161,0.2085,0.2344,0.2331,0.2324,0.2318,0.1823,0.1818,0.1814,0.1811,0,0.1987,0.2,0.2005,0.2017,0.2027,0.2032,0.2057,0.2077,0.214,0.2168,0.2228,0.2262,0.2306,0.2192,0.2198,0.2172,0.2143,0.209,0.2415,0.1866,0.1823,0.1808,0.1818,0.1778,0.1781,0.1784,0.1785,0.1787,0.1963,0.1959,0.1976,0.1977,0.199,0.1985,0.1967,0.1999,0.2014,0.2013,0.2124,0.2083,0.2065,0.1952,0.189,0.1837,0.1998,0.1888,0.1895,0.1907,0.1851,0.1813,0.1755,0.1758,0.176,0.1763,0.1765,0,0.1921,0.1931,0.1933,0.192,0.1894,0.193,0.1937,0.1879,0.1853,0.1877,0.1878,0.1684,0.1586,0.1598,0.144,0.1447,0.1389,0.1409,0.1284,0.1319,0.135,0.1261,0.101,0.1008,0.1006,0.1005,0,0,0.1905,0.1888,0.1881,0.1817,0.181,0.1743,0.1728,0.1661,0.1632,0.1541,0.1485,0.1518,0.1552,0.1251,0.1199,0.1082,0.1201,0.1045,0.1646,0.1534,0.1562,0.162,0.1524,0,0,0,0,0]},{"header":{"parameterUnit":"m.s-1","parameterCategory":2,"la1":30.2991,"la2":30.254,"lo1":-89.0895,"lo2":-89.0444,"dy":0.0017,"dx":0.0017,"nx":28,"ny":28,"refTime":"2023-11-14T09:00:00:Z","depth":"2","parameterNumber":3,"parameterNumberName":"V-component_of_CURRENTS"},"data":[0,0,0,0,0,0,0,0,0,0,0,0,0,0,0,0,0,0,0,0,0,0,0,0,0,0,0,0,0,0,0,0,0,0,0,0,0,0,0,0,0,0,0,0,0,0,0,0,0,0,0,0,0,0,0,0,0,0,-0.0071,-0.0071,0,-0.0096,-0.0096,-0.0096,-0.0109,-0.0109,-0.0109,-0.0109,-0.0145,-0.0146,-0.0147,0,0,0,0,0,0,0,0,0,0,0,0,0,-0.0056,-0.0056,-0.0071,-0.0071,-0.0071,-0.0096,-0.0096,-0.0096,-0.0109,-0.0109,-0.0109,-0.0109,-0.0145,-0.0146,-0.0147,0,0,0,0,0,0,0,0,0,0,0,0,0,-0.007,-0.0056,-0.0071,-0.008,-0.0081,-0.0096,-0.0096,-0.0097,-0.0109,-0.0109,-0.0109,-0.0109,-0.0144,-0.0146,-0.0147,-0.0156,0,0,-0.0151,-0.0152,0,0,0,0,0,0,0,0,-0.0069,-0.007,-0.0079,-0.008,-0.0081,-0.0099,-0.0104,-0.0117,-0.0109,-0.0099,-0.0109,-0.0109,-0.013,-0.0133,-0.0138,-0.0158,-0.016,-0.0152,-0.0152,-0.0153,-0.0153,0,0,0,0,0,0,0,-0.0068,-0.0069,-0.0081,-0.0079,-0.008,-0.0091,-0.0093,-0.0107,-0.0115,-0.01,-0.0101,-0.0103,-0.0131,-0.0136,-0.0139,-0.016,-0.0152,-0.0153,-0.0154,-0.0154,-0.0174,-0.0174,0,0,0,0,0,0,-0.0063,-0.0068,-0.008,-0.0081,-0.0075,-0.0091,-0.0093,-0.0093,-0.0114,-0.0117,-0.0103,-0.0104,-0.0134,-0.0137,-0.014,-0.0135,-0.0153,-0.0154,-0.0155,-0.0174,-0.0174,-0.0174,0,0,0,0,0,0,-0.0063,-0.0064,-0.0079,-0.0076,-0.0078,-0.0091,-0.0092,-0.0094,-0.0097,-0.0117,-0.012,-0.0104,-0.0134,-0.0138,-0.0144,-0.0137,-0.0155,-0.0156,-0.0175,-0.0174,-0.0174,-0.0135,0,0,0,0,0,0,-0.0062,-0.0064,-0.0062,-0.0075,-0.0078,-0.0081,-0.0092,-0.0094,-0.0099,-0.01,-0.0119,-0.0122,-0.0134,-0.0142,-0.0145,-0.0139,-0.0158,-0.0175,-0.0175,-0.0174,-0.0137,-0.0134,-0.0131,0,0,0,0,0,-0.0062,-0.0058,-0.0062,-0.0064,-0.0076,-0.0081,-0.0083,-0.0093,-0.0099,-0.0097,-0.0107,-0.0121,-0.014,-0.0142,-0.0147,-0.0141,-0.0176,-0.0175,-0.0174,-0.0139,-0.0134,-0.0131,0,0,0,0,0,0,-0.0053,-0.0059,-0.0064,-0.0063,-0.0069,-0.0083,-0.0084,-0.0091,-0.0099,-0.01,-0.0118,-0.0121,-0.0125,-0.0138,-0.014,-0.0145,-0.016,-0.016,-0.0132,-0.0128,-0.0125,-0.0112,-0.0159,0,0,0,0,0,-0.005,-0.0047,-0.0057,-0.0056,-0.0058,-0.0071,-0.0075,-0.0081,-0.009,-0.0093,-0.0106,-0.0118,-0.0126,-0.013,-0.0142,-0.0145,-0.0161,-0.0144,-0.0141,-0.0138,-0.013,-0.0144,-0.0142,-0.0171,-0.0171,-0.0171,0,0,-0.0048,-0.005,-0.0049,-0.0054,-0.0061,-0.0055,-0.0073,-0.0076,-0.007,-0.0096,-0.0094,-0.011,-0.0125,-0.0126,-0.0128,-0.0135,-0.014,-0.0137,-0.0134,-0.0128,-0.0143,-0.0141,-0.0138,-0.017,-0.0171,-0.0171,0,0,-0.0037,-0.0042,-0.0035,-0.0036,-0.0041,-0.0045,-0.0044,-0.0055,-0.0059,-0.0061,-0.0076,-0.0083,-0.01,-0.0105,-0.011,-0.0096,-0.0124,-0.0104,-0.0076,-0.0089,-0.0087,-0.0085,-0.0109,-0.0109,-0.01,-0.01,-0.01,0,-0.0033,-0.0024,-0.0034,-0.0025,-0.002,-0.0036,-0.0024,-0.003,-0.0041,-0.0038,-0.0055,-0.0071,-0.0087,-0.008,-0.0076,-0.0089,-0.0105,-0.0088,-0.0085,-0.0083,-0.0082,-0.0107,-0.0108,-0.0098,-0.0099,-0.0099,-0.0099,0,-0.0016,-0.0007,-0.0002,0.0008,0.0012,0.0019,0.0014,0.0013,0.0004,0.0001,-0.0002,-0.0027,-0.0034,-0.0043,-0.0056,-0.0051,-0.007,-0.0081,-0.0093,-0.0076,-0.0104,-0.0106,-0.0096,-0.0096,-0.0097,-0.0097,0,0,-0.0005,0.0008,0.0012,0.0027,0.0032,0.004,0.0049,0.0059,0.0076,0.0051,0.0065,0.0043,0.0027,0.002,-0.0002,-0.0015,-0.0027,-0.0041,-0.0042,-0.0062,-0.0065,-0.0072,-0.0075,-0.0038,-0.0037,-0.0037,-0.0091,0,0.0015,0.0043,0.0045,0.0077,0.0093,0.0088,0.0104,0.0109,0.0109,0.0117,0.0087,0.009,0.0052,0.0048,0.003,-0.0005,-0.0028,-0.0012,-0.0081,-0.0083,-0.0089,-0.0076,-0.0028,-0.007,-0.0093,-0.0093,-0.0094,0,0.0038,0.0056,0.0089,0.012,0.0127,0.0144,0.0174,0.0187,0.0193,0.0189,0.0181,0.0157,0.0138,0.0098,0.004,0.0052,-0.0004,-0.0041,-0.0044,-0.0062,-0.0092,-0.009,-0.0073,-0.0097,-0.0097,-0.0096,-0.0096,0,0.0061,0.0091,0.0122,0.0132,0.016,0.0175,0.0192,0.021,0.0235,0.0237,0.025,0.0217,0.0206,0.0137,0.0061,0.0048,-0.0007,-0.0036,-0.0101,-0.0103,-0.008,-0.0079,-0.0087,-0.0087,-0.0087,-0.0087,-0.0087,0,0.0088,0.0115,0.0136,0.0154,0.0197,0.0206,0.0255,0.0264,0.0291,0.0337,0.029,0.031,0.0215,0.0171,0.0084,-0.0003,0.0007,-0.0091,-0.0111,-0.0066,-0.0064,-0.01,-0.0101,-0.0089,-0.0089,-0.0088,-0.0088,0,0.0113,0.0124,0.0164,0.0196,0.021,0.0242,0.0297,0.0337,0.035,0.0404,0.0405,0.0383,0.0329,0.0228,0.0126,0.0037,-0.0053,-0.0093,-0.0038,-0.005,-0.0152,-0.015,-0.0176,-0.0177,-0.0177,-0.0178,-0.0178,0,0.0135,0.0157,0.0196,0.0225,0.0242,0.029,0.033,0.0362,0.0414,0.0457,0.0489,0.0451,0.0443,0.0288,0.0149,-0.0001,-0.0046,-0.0089,-0.0107,-0.0141,-0.0159,-0.0156,-0.0154,-0.0069,-0.0069,-0.0068,-0.0068,0,0.0181,0.0188,0.0219,0.0266,0.031,0.037,0.043,0.0477,0.0528,0.0571,0.0623,0.0618,0.0492,0.0373,0.0168,0.0066,-0.0059,-0.0086,-0.0121,-0.0053,-0.0044,-0.006,-0.006,-0.0064,-0.0064,-0.0065,-0.0065,-0.0065,0.0218,0.0242,0.0271,0.032,0.0372,0.0444,0.0486,0.0568,0.065,0.0715,0.0717,0.0703,0.0576,0.0327,0.0173,-0.001,-0.0022,-0.0108,-0.0108,-0.0109,-0.0085,-0.0077,-0.0099,-0.01,-0.0101,-0.0101,-0.0101,0,0.0261,0.0274,0.0326,0.0378,0.044,0.0449,0.0548,0.0613,0.0711,0.0756,0.0791,0.068,0.0552,0.0376,0.0131,-0.0023,-0.0025,-0.0092,-0.0056,-0.0059,-0.0061,-0.0034,-0.0036,-0.0037,-0.0037,-0.0038,0,0,0.028,0.0322,0.0344,0.0431,0.0461,0.0541,0.0588,0.0685,0.0745,0.0802,0.0778,0.0764,0.0581,0.0409,0.0233,0.0088,0.0036,0.0057,0.0025,0.0086,0.0085,-0.0044,-0.0001,0,0,0,0,0]}],[{"header":{"parameterUnit":"m.s-1","parameterCategory":2,"la1":30.2991,"la2":30.254,"lo1":-89.0895,"lo2":-89.0444,"dy":0.0017,"dx":0.0017,"nx":28,"ny":28,"refTime":"2023-11-14T09:00:00:Z","depth":"4","parameterNumber":2,"parameterNumberName":"U-component_of_CURRENTS"},"data":[0,0,0,0,0,0,0,0,0,0,0,0,0,0,0,0,0,0,0,0,0,0,0,0,0,0,0,0,0,0,0,0,0,0,0,0,0,0,0,0,0,0,0,0,0,0,0,0,0,0,0,0,0,0,0,0,0,0,0.1188,0.1189,0,0.1213,0.1213,0.1213,0.1245,0.1246,0.1246,0.1247,0.1292,0.1292,0.1293,0,0,0,0,0,0,0,0,0,0,0,0,0,0.1166,0.1166,0.1188,0.1189,0.1189,0.1213,0.1213,0.1214,0.1245,0.1246,0.1246,0.1247,0.1291,0.1292,0.1293,0,0,0,0,0,0,0,0,0,0,0,0,0,0.118,0.1166,0.1188,0.1209,0.1211,0.1213,0.1213,0.1214,0.1245,0.1246,0.1246,0.1247,0.1291,0.1292,0.1293,0.128,0,0,0.1296,0.1296,0,0,0,0,0,0,0,0,0.1179,0.1181,0.1205,0.1207,0.121,0.1228,0.1222,0.1237,0.1244,0.123,0.1247,0.1248,0.1272,0.1275,0.1275,0.1282,0.1284,0.1296,0.1297,0.1297,0.1297,0,0,0,0,0,0,0,0.1178,0.118,0.1197,0.1206,0.1208,0.1216,0.1219,0.1225,0.1245,0.1232,0.1234,0.1239,0.1274,0.1274,0.1277,0.1285,0.1296,0.1297,0.1297,0.1298,0.1377,0.1378,0,0,0,0,0,0,0.1177,0.1179,0.1196,0.1198,0.1198,0.1215,0.1219,0.122,0.1245,0.125,0.1238,0.124,0.1272,0.1276,0.1279,0.1343,0.1297,0.1298,0.1298,0.1375,0.1377,0.1379,0,0,0,0,0,0,0.1176,0.1178,0.1195,0.119,0.1193,0.1215,0.1216,0.122,0.1249,0.125,0.1255,0.1267,0.1273,0.1277,0.1312,0.1342,0.1298,0.1299,0.1373,0.1376,0.1378,0.1422,0,0,0,0,0,0,0.1175,0.1177,0.1192,0.119,0.1193,0.1215,0.1216,0.122,0.125,0.1253,0.1275,0.1279,0.1274,0.1311,0.1313,0.1343,0.13,0.1371,0.1374,0.1377,0.1418,0.1425,0.1431,0,0,0,0,0,0.1174,0.1184,0.1192,0.1195,0.1208,0.1216,0.1219,0.1236,0.125,0.1266,0.1286,0.128,0.1331,0.1313,0.1315,0.1345,0.137,0.1374,0.1377,0.1415,0.1424,0.1431,0,0,0,0,0,0,0.1183,0.1188,0.1197,0.121,0.1222,0.1222,0.1242,0.1252,0.1279,0.1293,0.1294,0.1299,0.1342,0.1339,0.1318,0.1379,0.1352,0.1356,0.138,0.1388,0.1394,0.14,0.1301,0,0,0,0,0,0.1191,0.1203,0.1207,0.1222,0.123,0.1242,0.1254,0.1265,0.1281,0.1295,0.1311,0.1332,0.1352,0.1367,0.1382,0.141,0.1411,0.1434,0.144,0.1445,0.1453,0.1481,0.149,0.139,0.139,0.139,0,0,0.1199,0.1205,0.1213,0.1226,0.1238,0.1252,0.1252,0.1277,0.1299,0.1295,0.1342,0.1357,0.1366,0.1401,0.1421,0.1405,0.1475,0.145,0.1454,0.1459,0.1485,0.1495,0.1504,0.1392,0.1392,0.1392,0,0,0.1211,0.1228,0.1239,0.1252,0.1275,0.128,0.1294,0.1312,0.1335,0.137,0.138,0.1416,0.1442,0.1457,0.1466,0.1517,0.1509,0.1527,0.1562,0.1589,0.1598,0.1605,0.1618,0.1626,0.1529,0.1529,0.1529,0,0.1226,0.1236,0.1246,0.1261,0.1277,0.1296,0.1314,0.1335,0.1367,0.1391,0.1396,0.1457,0.1467,0.151,0.1532,0.1531,0.1541,0.1529,0.1597,0.1604,0.1611,0.1622,0.163,0.1531,0.1531,0.1531,0.1531,0,0.1235,0.1257,0.1268,0.1291,0.131,0.1331,0.1355,0.139,0.1421,0.144,0.1501,0.1519,0.1556,0.1568,0.1566,0.1624,0.1614,0.1601,0.1574,0.1623,0.1632,0.164,0.1535,0.1534,0.1533,0.1533,0,0,0.1229,0.1267,0.1274,0.1293,0.133,0.1342,0.139,0.1429,0.1467,0.151,0.1557,0.1603,0.1624,0.1637,0.1646,0.1672,0.1727,0.1664,0.1664,0.167,0.1785,0.1661,0.1658,0.1729,0.1731,0.1732,0.1771,0,0.1237,0.1265,0.1286,0.1324,0.134,0.1378,0.1417,0.1462,0.1504,0.1556,0.1595,0.1645,0.1647,0.1675,0.1704,0.1725,0.1751,0.1718,0.1741,0.1742,0.1621,0.1663,0.1737,0.1777,0.1779,0.178,0.1781,0,0.1232,0.1254,0.129,0.134,0.1353,0.1385,0.1452,0.149,0.1564,0.1603,0.1662,0.1691,0.1754,0.174,0.1806,0.1788,0.1797,0.1803,0.1804,0.1679,0.1633,0.1719,0.1794,0.1793,0.1792,0.1791,0.1791,0,0.1205,0.1255,0.1286,0.1304,0.1363,0.14,0.144,0.1511,0.1552,0.1641,0.168,0.1751,0.1794,0.1827,0.1852,0.184,0.1905,0.1882,0.1778,0.1769,0.1849,0.184,0.1925,0.1925,0.1925,0.1924,0.1924,0,0.1186,0.1215,0.1283,0.1298,0.1345,0.1395,0.1456,0.1509,0.1587,0.1632,0.1708,0.1745,0.1821,0.1861,0.1874,0.1848,0.1926,0.1791,0.1774,0.1866,0.186,0.1854,0.1845,0.1926,0.1926,0.1925,0.1925,0,0.1147,0.119,0.1231,0.1305,0.1332,0.1369,0.1457,0.1496,0.1581,0.1642,0.1675,0.1764,0.1811,0.1861,0.1912,0.1859,0.1857,0.1827,0.1928,0.1914,0.1698,0.1691,0.1709,0.1705,0.1702,0.1699,0.1697,0,0.1125,0.1144,0.1228,0.1255,0.1294,0.1357,0.1395,0.1486,0.1521,0.1632,0.1646,0.173,0.1775,0.1743,0.181,0.1818,0.1796,0.1779,0.1733,0.1696,0.1678,0.1676,0.1674,0.1691,0.1691,0.169,0.1689,0,0.1088,0.1133,0.117,0.122,0.1267,0.1306,0.1366,0.1377,0.1472,0.1565,0.1573,0.1591,0.1634,0.1662,0.1682,0.1686,0.1781,0.1743,0.175,0.1706,0.1674,0.1659,0.1661,0.1677,0.1679,0.168,0.1681,0,0.1071,0.1087,0.1141,0.1173,0.1227,0.123,0.127,0.1296,0.1335,0.1443,0.1444,0.1528,0.1613,0.1594,0.1616,0.1607,0.1579,0.1517,0.1535,0.1549,0.1478,0.1412,0.1325,0,0,0,0,0,0.1041,0.1046,0.1083,0.1105,0.1153,0.1178,0.1238,0.1276,0.1359,0.1324,0.1375,0.1405,0.1421,0.1467,0.1427,0.1557,0.1596,0.1503,0.1538,0.1612,0.1626,0.1557,0,0,0,0,0,0,0.102,0.1055,0.1059,0.104,0.1041,0.1076,0.1108,0.1165,0.1142,0.1232,0.1247,0.1319,0.136,0.1432,0.1402,0.1416,0.1407,0.1559,0.1555,0.1605,0.1617,0.1628,0.1562,0,0,0,0,0]},{"header":{"parameterUnit":"m.s-1","parameterCategory":2,"la1":30.2991,"la2":30.254,"lo1":-89.0895,"lo2":-89.0444,"dy":0.0017,"dx":0.0017,"nx":28,"ny":28,"refTime":"2023-11-14T09:00:00:Z","depth":"4","parameterNumber":3,"parameterNumberName":"V-component_of_CURRENTS"},"data":[0,0,0,0,0,0,0,0,0,0,0,0,0,0,0,0,0,0,0,0,0,0,0,0,0,0,0,0,0,0,0,0,0,0,0,0,0,0,0,0,0,0,0,0,0,0,0,0,0,0,0,0,0,0,0,0,0,0,0.0188,0.0188,0,0.0177,0.0177,0.0177,0.0173,0.0173,0.0173,0.0173,0.0152,0.0151,0.0151,0,0,0,0,0,0,0,0,0,0,0,0,0,0.0184,0.0184,0.0188,0.0188,0.0188,0.0178,0.0177,0.0177,0.0173,0.0173,0.0173,0.0173,0.0152,0.0151,0.0151,0,0,0,0,0,0,0,0,0,0,0,0,0,0.0181,0.0184,0.0189,0.0184,0.0184,0.0178,0.0177,0.0177,0.0173,0.0173,0.0173,0.0173,0.0152,0.0151,0.0151,0.0145,0,0,0.0148,0.0148,0,0,0,0,0,0,0,0,0.0181,0.0181,0.0185,0.0185,0.0184,0.0176,0.0168,0.0166,0.0173,0.0177,0.0173,0.0173,0.0159,0.0158,0.0156,0.0145,0.0144,0.0148,0.0148,0.0147,0.0147,0,0,0,0,0,0,0,0.0181,0.0181,0.0184,0.0185,0.0184,0.0176,0.0176,0.0168,0.0168,0.0177,0.0176,0.0175,0.0159,0.0157,0.0155,0.0143,0.0148,0.0147,0.0147,0.0147,0.0129,0.0129,0,0,0,0,0,0,0.0183,0.0182,0.0185,0.0184,0.0182,0.0176,0.0176,0.0179,0.0168,0.0167,0.0175,0.0175,0.0158,0.0156,0.0155,0.0158,0.0147,0.0146,0.0146,0.0129,0.0129,0.0129,0,0,0,0,0,0,0.0184,0.0184,0.0185,0.0182,0.0182,0.0176,0.018,0.0179,0.0179,0.0167,0.0165,0.0176,0.0158,0.0156,0.0154,0.0156,0.0146,0.0145,0.0129,0.0129,0.0129,0.0157,0,0,0,0,0,0,0.0184,0.0184,0.0189,0.0182,0.0182,0.0186,0.018,0.0178,0.0178,0.0177,0.0167,0.0165,0.0158,0.0155,0.0153,0.0155,0.0145,0.0129,0.0129,0.0129,0.0156,0.0158,0.016,0,0,0,0,0,0.0183,0.0191,0.0189,0.019,0.0188,0.0186,0.0185,0.0181,0.0178,0.018,0.0175,0.0166,0.0154,0.0155,0.0152,0.0154,0.0129,0.0129,0.0129,0.0155,0.0158,0.016,0,0,0,0,0,0,0.0192,0.0191,0.0189,0.0197,0.0193,0.0185,0.0188,0.0183,0.018,0.018,0.0169,0.0167,0.0165,0.0155,0.0156,0.0148,0.0138,0.0138,0.0159,0.0161,0.0163,0.0172,0.0144,0,0,0,0,0,0.0196,0.0203,0.0197,0.0203,0.0202,0.0194,0.0193,0.019,0.0186,0.0185,0.0177,0.0168,0.0162,0.0159,0.0152,0.0149,0.0133,0.0147,0.0148,0.015,0.0155,0.0135,0.0135,0.0129,0.0129,0.0129,0,0,0.02,0.0201,0.0205,0.0205,0.0202,0.0207,0.0194,0.0195,0.0198,0.0182,0.0186,0.0175,0.0163,0.0162,0.0159,0.0154,0.0142,0.015,0.0152,0.0156,0.0135,0.0135,0.0136,0.0129,0.0129,0.0129,0,0,0.0213,0.0214,0.0223,0.0222,0.0219,0.0216,0.0217,0.0211,0.0208,0.0208,0.0197,0.0191,0.018,0.0174,0.0169,0.0175,0.0153,0.0169,0.0186,0.0166,0.0167,0.0167,0.0144,0.0142,0.017,0.017,0.017,0,0.0219,0.0231,0.0225,0.0232,0.0235,0.0223,0.0232,0.0228,0.0221,0.0222,0.0213,0.0199,0.0187,0.0186,0.0189,0.018,0.0163,0.018,0.0169,0.0169,0.0169,0.0145,0.0143,0.0171,0.0171,0.0171,0.0171,0,0.0236,0.0246,0.0251,0.0259,0.0261,0.0267,0.0261,0.026,0.0254,0.025,0.0245,0.0226,0.0219,0.021,0.0203,0.0196,0.0183,0.0175,0.0166,0.0171,0.0146,0.0143,0.0173,0.0173,0.0172,0.0172,0,0,0.0253,0.0262,0.0266,0.0275,0.0277,0.0283,0.0287,0.0292,0.03,0.0283,0.0288,0.027,0.0258,0.0251,0.0233,0.0215,0.0197,0.0197,0.0195,0.0178,0.015,0.0145,0.014,0.0185,0.0185,0.0185,0.0131,0,0.027,0.0292,0.0292,0.0315,0.0325,0.0319,0.0328,0.0329,0.0325,0.0325,0.0299,0.0298,0.0273,0.027,0.0247,0.0215,0.019,0.0212,0.0144,0.0142,0.014,0.0137,0.0184,0.0129,0.0128,0.0127,0.0127,0,0.0291,0.0303,0.0328,0.0346,0.0351,0.0363,0.0379,0.0386,0.0382,0.0376,0.0363,0.0343,0.0319,0.0293,0.0233,0.0248,0.0201,0.0168,0.0165,0.015,0.0131,0.0122,0.0121,0.0121,0.0122,0.0122,0.0123,0,0.031,0.0331,0.0354,0.036,0.0376,0.0388,0.0399,0.0405,0.0419,0.0411,0.0414,0.0379,0.0364,0.0304,0.0238,0.0234,0.0167,0.015,0.0098,0.0096,0.0105,0.0105,0.0099,0.0099,0.01,0.01,0.01,0,0.033,0.0351,0.0366,0.038,0.041,0.0414,0.0448,0.0449,0.046,0.0482,0.0445,0.0444,0.0366,0.0319,0.0249,0.0169,0.0172,0.0101,0.0084,0.0117,0.0119,0.0102,0.0103,0.0098,0.0098,0.0098,0.0099,0,0.0347,0.0358,0.0387,0.041,0.0421,0.0444,0.0482,0.0506,0.051,0.0533,0.0531,0.0494,0.0434,0.0351,0.0256,0.019,0.011,0.0077,0.0121,0.0107,0.0047,0.005,0.001,0.0009,0.0009,0.0008,0.0008,0,0.0356,0.0373,0.041,0.0432,0.0445,0.0482,0.051,0.0529,0.0555,0.0564,0.0573,0.0527,0.0489,0.0353,0.0262,0.0125,0.0101,0.005,0.0043,0.0051,0.0038,0.0042,0.0045,0.0007,0.0007,0.0007,0.0007,0,0.0371,0.0387,0.0408,0.0455,0.0489,0.053,0.0568,0.059,0.0613,0.0618,0.0603,0.0533,0.0464,0.0356,0.0253,0.0153,0.0081,0.0045,0.0045,0.0037,0.0047,0.0036,0.004,0.0005,0.0005,0.0005,0.0005,0,0.0382,0.0399,0.0432,0.0469,0.0517,0.056,0.0582,0.0607,0.0629,0.0633,0.063,0.0553,0.0513,0.0371,0.0278,0.0181,0.0146,0.0098,0.0094,0.0095,0.0136,0.0162,0.0141,0,0,0,0,0,0.0394,0.0411,0.0445,0.0486,0.0536,0.0563,0.0613,0.0632,0.0654,0.0645,0.0636,0.0571,0.0434,0.0382,0.0282,0.0261,0.0127,0.0139,0.007,-0.0005,-0.0003,0.003,0,0,0,0,0,0,0.0402,0.0435,0.0441,0.0492,0.0524,0.0579,0.0612,0.0628,0.0622,0.063,0.0564,0.053,0.0404,0.0489,0.0275,0.0248,0.0185,0.008,0.0077,-0.0006,-0.0004,-0.0002,0.0032,0,0,0,0,0]}]]